Simultaneous Nadir Overpasses (SNOs) Predictions

Prediction of SNOs between NPP and TERRA Satellite Orbit:

Table of predicted SNOs for the next 14.0 days since TLE Epoch: 7/2/2016
Index Date (NPP) Time (NPP) Lat,Lon (NPP) SZA (NPP ) Date (TERRA) Time (TERRA) Lat,Lon (TERRA) SZA (TERRA ) Distance(km) Time Diff (sec)
1 07/02/2016 18:23:29 69.09, -97.94 46.06 07/02/2016 18:24:38 68.98, -96.61 45.92 54.17 69
2 07/02/2016 19:14:00 -68.42, 70.28 134.63 07/02/2016 19:14:16 -68.43, 70.34 134.62 2.48 16
3 07/02/2016 20:04:43 68.24,-122.18 45.19 07/02/2016 20:03:44 68.26,-122.22 45.22 2.98 59
4 07/05/2016 10:40:11 68.48, 18.66 45.68 07/05/2016 10:41:15 68.48, 18.65 45.67 0.38 64
5 07/05/2016 11:30:52 -68.34,-173.85 134.46 07/05/2016 11:30:46 -68.32,-173.91 134.48 3.35 6
6 07/05/2016 12:21:29 67.84, -5.90 45.03 07/05/2016 12:20:18 67.93, -6.73 45.13 36.00 71
7 07/08/2016 02:57:04 68.41, 134.52 45.89 07/08/2016 02:57:45 68.43, 134.46 45.91 3.32 41
8 07/08/2016 03:47:46 -68.32, -58.04 134.20 07/08/2016 03:47:15 -68.33, -58.02 134.19 1.46 31
9 07/10/2016 18:23:28 -69.25, 81.85 132.91 07/10/2016 18:24:36 -69.16, 83.62 133.04 70.48 68
10 07/10/2016 19:13:58 68.39,-109.68 46.21 07/10/2016 19:14:15 68.37,-109.73 46.19 2.73 17
11 07/10/2016 20:04:40 -68.30, 57.76 133.89 07/10/2016 20:03:45 -68.28, 57.79 133.90 2.41 55
12 07/13/2016 10:40:08 -68.48,-161.34 133.33 07/13/2016 10:41:17 -68.50,-161.34 133.32 2.19 69
13 07/13/2016 11:30:52 68.37, 6.12 46.57 07/13/2016 11:30:44 68.37, 6.15 46.57 1.52 8
14 07/13/2016 12:21:30 -68.06, 173.83 133.75 07/13/2016 12:20:17 -68.12, 173.48 133.68 15.98 73
15 07/16/2016 02:57:01 -68.46, -45.53 132.93 07/16/2016 02:57:46 -68.45, -45.52 132.95 1.36 45
16 07/16/2016 03:47:44 68.30, 121.98 46.92 07/16/2016 03:47:13 68.32, 121.96 46.94 1.85 31




NCC Satellite Simultaneous Nadir Overpasses (SNOs) Prediction Service
